FALCON 9 DEB, 48610

Orbit data source: Space-Track

FALCON 9 DEB, 48610 is space debris in LEO originally from a launch on Sat, 15 May 2021 UTC launched from the Air Force Eastern Test Range (AFETR). Debris objects in space refer to the collection of defunct objects orbiting the Earth. Examples of debris include non-operational satellites, rocket bodies, and fragments generated from explosions, collisions, or faulty payload assembly.

Loading next visibility...
Identifier
48610, 2021-041BK
Orbit
LEO
Country
Flag of USUS
Related business
Manufacturer
SpaceX/Seattle
Mission
Spacecraft
Bus & Motor
Unknown
Mass
~100 kg wet, ~100 kg dry
Launch date (UTC)
2021-05-15 (5 years ago)
Launch vehicle
Unknown
Launch site
Air Force Eastern Test Range (AFETR)
Object type
Payload
Rocket body
Debris
Shape & HBR
Cyl, 3.5 m
Radar Cross Section
0.110 m², Medium (>0.1 m² and < 1m²)

Expand to show TLE details & history
Last TLE update: 2 days ago

TLE from 2 days ago
0 FALCON 9 DEB
1 48610U 21041BK  26171.31100181  .00003336  00000-0  18927-3 0  9994
2 48610  53.0228  59.2127 0011971 133.2493 226.9501 15.15639725280189
Epoch: 2026-06-20T07:27Z
TLE epoch observation values (Epoch: 2026-06-20T07:27:50.556Z)
Latitude
Longitude
38.7246°
Altitude
525.558 km
Speed
7.598 km/s
True Right ascension
03h 56m 51s
True Declination
0° 00' 00"
Sunlit
Object was in daylight at epoch
Visualization orbit readout
Latitude
Unknown
Longitude
Unknown
Altitude
Unknown
Speed
Unknown
Apparent Right ascension
Unknown
Apparent Declination
Unknown
Sunlit
N/A
Visualization observer readout
Local Sidereal Time
21:35:29
Azimuth
Unknown
Elevation
Unknown
Doppler factor
Unknown
Orbital elements
Apogee altitude
527.571 km
Perigee altitude
511.057 km
Semi-major axis
6,897.451 km
Eccentricity
0.0012
Inclination
53.0228°
RAAN
59.2127°
Arg. of periapsis
133.2493°
True anomaly
226.84996°
Mean anomaly
226.9501°
Eccentric anomaly
226.90002°
Mean motion
3.78887 °/min
Orbital period
95.02 mins
BSTAR
0.00018927
Loading maneuver chart data...
Computing Atmospheric mass density...

Documentation

Showing up to 5 results
|